Weather History for Pensacola NAS, FL

Change the Weather History Date:

Saturday, July 6, 2013

  Actual Average Record
Temperature  
Mean Temperature 74 °F -  
Max Temperature 79 °F 87 °F 96 °F (1998)
Min Temperature 71 °F 71 °F 71 °F (1999)
Cooling Degree Days 10    
Growing Degree Days 24 (Base 50)    
Moisture  
Dew Point 73 °F    
Average Humidity 92    
Maximum Humidity 100    
Minimum Humidity 83    
Precipitation  
Precipitation 0.40 in - - ()
Sea Level Pressure  
Sea Level Pressure 30.04 in    
Wind  
Wind Speed 8 mph (SE)    
Max Wind Speed 14 mph    
Max Gust Speed 25 mph    
Visibility 7 miles    
Events Rain    
Averages and records for this station are not official NWS values.
T = Trace of Precipitation, MM = Missing Value Source: NWS Daily Summary

Daily Weather History Graph

Daily Weather History Graph

Search for Another Location

Airport:

Trip Planner

Search our weather history database for the weather conditions in past years. The results will help you decide how hot, cold, wet, or windy it might be!

Date:

Astronomy

Jul. 06, 2013 Rise Set
Actual Time 5:53 AM CDT 7:54 PM CDT
Civil Twilight 5:25 AM CDT 8:22 PM CDT
Nautical Twilight 4:52 AM CDT 8:55 PM CDT
Astronomical Twilight 4:17 AM CDT 9:30 PM CDT
Moon 4:35 AM CDT (7/6) 6:39 PM CDT (7/6)
Length of Visible Light 14h 56m
Length of Day
14h 01m
Waning Crescent, 2% of the Moon is Illuminated
Jul 6
Waning Crescent
Jul 8
New
Jul 15
First Quarter
Jul 22
Full
Jul 29
Last Quarter

Hourly Weather History & Observations

Time (CDT) Temp. Dew Point Humidity Pressure Visibility Wind Dir Wind Speed Gust Speed Precip Events Conditions
12:56 AM 77.0 °F 73.0 °F 88% 30.01 in 10.0 mi SE 13.8 mph 25.3 mph 0.00 in   Mostly Cloudy
1:36 AM 77.0 °F 73.4 °F 89% 30.01 in 10.0 mi SE 13.8 mph - N/A   Mostly Cloudy
1:56 AM 77.0 °F 73.0 °F 88% 30.01 in 10.0 mi SE 12.7 mph - N/A   Mostly Cloudy
2:06 AM 77.0 °F 73.4 °F 89% 30.00 in 10.0 mi SE 9.2 mph - N/A   Scattered Clouds
2:56 AM 78.1 °F 73.9 °F 87% 30.00 in 10.0 mi SE 6.9 mph - N/A   Mostly Cloudy
3:56 AM 78.1 °F 73.9 °F 87% 30.00 in 10.0 mi SSE 10.4 mph - N/A   Overcast
4:14 AM 78.8 °F 73.4 °F 83% 30.00 in 10.0 mi SSE 5.8 mph - N/A   Overcast
4:23 AM 78.8 °F 73.4 °F 83% 30.00 in 10.0 mi SSE 5.8 mph - N/A   Overcast
4:56 AM 78.1 °F 75.0 °F 90% 30.01 in 10.0 mi SSE 6.9 mph - N/A   Overcast
5:43 AM 78.8 °F 75.2 °F 89% 30.00 in 10.0 mi SE 5.8 mph - N/A   Overcast
5:56 AM 78.1 °F 75.0 °F 90% 30.01 in 10.0 mi SE 8.1 mph - N/A   Overcast
6:53 AM 75.2 °F 73.4 °F 94% 30.01 in 6.0 mi North 4.6 mph - 0.00 in Rain Rain
6:56 AM 75.0 °F 73.9 °F 96% 30.02 in 6.0 mi North 6.9 mph - 0.00 in Rain Rain
7:17 AM 75.2 °F 73.4 °F 94% 30.02 in 10.0 mi North 3.5 mph - 0.00 in   Overcast
7:22 AM 75.2 °F 73.4 °F 94% 30.02 in 2.0 mi North 4.6 mph - 0.00 in Rain Light Rain
7:27 AM 73.4 °F 73.4 °F 100% 30.02 in 1.2 mi North 5.8 mph - 0.00 in Rain Heavy Rain
7:33 AM 75.2 °F 73.4 °F 94% 30.02 in 2.0 mi NE 6.9 mph - N/A Rain Heavy Rain
7:41 AM 75.2 °F 73.4 °F 94% 30.02 in 1.2 mi NNE 5.8 mph - N/A Rain Heavy Rain
7:47 AM 75.2 °F 73.4 °F 94% 30.02 in 3.0 mi Calm Calm - N/A Rain Light Rain
7:56 AM 73.9 °F 73.0 °F 97% 30.03 in 3.0 mi WNW 3.5 mph - N/A Rain Rain
8:11 AM 73.4 °F 71.6 °F 94% 30.03 in 8.0 mi NW 5.8 mph - N/A Rain Light Rain
8:29 AM 73.4 °F 71.6 °F 94% 30.04 in 10.0 mi WNW 9.2 mph - N/A Rain Light Rain
8:53 AM 71.6 °F 71.6 °F 100% 30.06 in 1.5 mi SW 11.5 mph 18.4 mph N/A Rain Heavy Rain
8:56 AM 72.0 °F 71.1 °F 97% 30.06 in 0.8 mi WSW 8.1 mph 18.4 mph N/A Rain Heavy Rain
9:16 AM 73.4 °F 71.6 °F 94% 30.06 in 1.5 mi West 11.5 mph 19.6 mph N/A Rain Heavy Rain
9:30 AM 73.4 °F 71.6 °F 94% 30.06 in 3.0 mi West 6.9 mph - N/A Rain Light Rain
9:44 AM 71.6 °F 71.6 °F 100% 30.07 in 2.0 mi West 8.1 mph 17.3 mph N/A Rain Heavy Rain
9:53 AM 71.6 °F 71.6 °F 100% 30.07 in 1.0 mi West 8.1 mph - N/A Rain Heavy Rain
9:56 AM 71.1 °F 71.1 °F 100% 30.07 in 1.0 mi WNW 8.1 mph - N/A Rain Heavy Rain
10:17 AM 71.6 °F 69.8 °F 94% 30.06 in 3.0 mi WNW 6.9 mph - N/A Rain Rain
10:56 AM 73.9 °F 72.0 °F 93% 30.06 in 10.0 mi NW 5.8 mph - N/A   Overcast
11:56 AM 73.0 °F 72.0 °F 96% 30.08 in 7.0 mi Variable 3.5 mph - 0.00 in Rain Rain
12:30 PM 71.6 °F 71.6 °F 100% 30.08 in 2.0 mi Calm Calm - N/A Rain Heavy Rain
12:56 PM 72.0 °F 71.1 °F 97% 30.08 in 1.5 mi WNW 4.6 mph - 0.25 in Rain Heavy Rain
1:15 PM 71.6 °F 71.6 °F 100% 30.07 in 3.0 mi Calm Calm - 0.05 in Rain Rain
1:56 PM 73.0 °F 71.1 °F 93% 30.06 in 3.0 mi Calm Calm - 0.12 in Rain Heavy Rain
2:56 PM 73.9 °F 72.0 °F 93% 30.03 in 10.0 mi NE 4.6 mph - 0.03 in   Overcast
3:56 PM 75.9 °F 73.0 °F 91% 30.03 in 10.0 mi East 4.6 mph - N/A   Overcast
4:56 PM 75.9 °F 73.0 °F 91% 30.03 in 10.0 mi East 4.6 mph - 0.00 in Rain Light Rain
5:30 PM 75.2 °F 73.4 °F 94% 30.02 in 10.0 mi East 5.8 mph - 0.00 in   Overcast
5:40 PM 77.0 °F 73.4 °F 89% 30.02 in 10.0 mi East 4.6 mph - 0.00 in   Partly Cloudy
5:56 PM 77.0 °F 73.9 °F 90% 30.03 in 10.0 mi East 5.8 mph - 0.00 in   Partly Cloudy
6:56 PM 77.0 °F 73.0 °F 88% 30.04 in 10.0 mi ESE 8.1 mph - N/A   Partly Cloudy
7:56 PM 77.0 °F 72.0 °F 84% 30.04 in 10.0 mi ESE 9.2 mph - N/A   Clear
8:56 PM 77.0 °F 73.0 °F 88% 30.05 in 10.0 mi SE 9.2 mph - N/A   Scattered Clouds
9:56 PM 77.0 °F 73.9 °F 90% 30.07 in 10.0 mi SE 8.1 mph - N/A   Scattered Clouds
10:34 PM 78.8 °F 75.2 °F 89% 30.06 in 10.0 mi SE 8.1 mph - N/A   Mostly Cloudy
10:43 PM 78.8 °F 75.2 °F 89% 30.06 in 10.0 mi SE 6.9 mph - N/A   Mostly Cloudy
10:56 PM 78.1 °F 75.0 °F 90% 30.07 in 10.0 mi SSE 13.8 mph - N/A   Mostly Cloudy
11:05 PM 78.8 °F 75.2 °F 89% 30.06 in 10.0 mi SSE 10.4 mph - N/A   Mostly Cloudy
11:22 PM 78.8 °F 75.2 °F 89% 30.06 in 10.0 mi SSE 11.5 mph - N/A   Scattered Clouds
11:56 PM 78.1 °F 73.9 °F 87% 30.07 in 10.0 mi South 9.2 mph - N/A   Partly Cloudy